TimeCDT,TemperatureF,Dew PointF,Humidity,Sea Level PressureIn,VisibilityMPH,Wind Direction,Wind SpeedMPH,Gust SpeedMPH,PrecipitationIn,Events,Conditions,WindDirDegrees,DateUTC
12:15 AM,51.3,48.4,90,30.13,10.0,NNW,3.5,-,N/A,,Overcast,340,2013-05-06 05:15:00
12:35 AM,51.4,48.4,89,30.13,10.0,North,5.8,-,N/A,,Overcast,360,2013-05-06 05:35:00
12:55 AM,51.4,48.4,89,30.13,10.0,North,3.5,-,N/A,,Overcast,350,2013-05-06 05:55:00
1:15 AM,51.3,48.2,89,30.12,10.0,North,5.8,-,N/A,,Overcast,350,2013-05-06 06:15:00
1:35 AM,51.1,48.4,90,30.11,7.0,NNW,5.8,-,N/A,,Overcast,330,2013-05-06 06:35:00
1:55 AM,50.9,48.2,90,30.11,4.0,NNW,5.8,-,N/A,,Overcast,340,2013-05-06 06:55:00
2:15 AM,50.5,48.2,92,30.11,4.0,NNW,4.6,-,N/A,,Overcast,340,2013-05-06 07:15:00
2:35 AM,50.4,48.2,92,30.10,4.0,NNW,6.9,-,N/A,,Overcast,330,2013-05-06 07:35:00
2:55 AM,50.2,48.2,93,30.11,4.0,North,5.8,-,N/A,,Overcast,350,2013-05-06 07:55:00
3:15 AM,50.0,48.2,94,30.10,4.0,North,5.8,-,N/A,,Overcast,350,2013-05-06 08:15:00
3:35 AM,50.0,48.0,93,30.11,4.0,NNW,3.5,-,N/A,,Overcast,340,2013-05-06 08:35:00
3:55 AM,49.8,48.0,94,30.11,3.0,NNW,4.6,-,N/A,,Overcast,340,2013-05-06 08:55:00
4:15 AM,49.5,47.8,94,30.11,2.5,NNW,6.9,-,N/A,,Overcast,330,2013-05-06 09:15:00
4:35 AM,49.3,47.8,95,30.11,2.0,NW,6.9,-,N/A,,Overcast,320,2013-05-06 09:35:00
4:55 AM,49.3,47.8,95,30.11,2.5,NNW,4.6,-,N/A,,Overcast,340,2013-05-06 09:55:00
5:15 AM,49.1,47.7,95,30.11,2.0,NNW,5.8,-,N/A,,Overcast,340,2013-05-06 10:15:00
5:35 AM,48.7,47.7,96,30.11,1.8,NNW,5.8,-,N/A,,Overcast,330,2013-05-06 10:35:00
5:55 AM,48.4,47.5,97,30.12,1.8,NNW,6.9,-,N/A,,Overcast,330,2013-05-06 10:55:00
6:15 AM,48.4,47.5,97,30.13,1.8,North,5.8,-,N/A,,Overcast,360,2013-05-06 11:15:00
6:35 AM,48.2,47.5,97,30.13,1.8,North,5.8,-,N/A,,Overcast,350,2013-05-06 11:35:00
6:55 AM,48.2,47.5,97,30.13,1.2,NNW,3.5,-,N/A,,Overcast,340,2013-05-06 11:55:00
7:15 AM,48.2,47.5,97,30.14,1.0,NNW,5.8,-,N/A,,Overcast,330,2013-05-06 12:15:00
7:35 AM,48.4,47.7,97,30.14,1.2,NNW,5.8,-,N/A,,Overcast,340,2013-05-06 12:35:00
7:55 AM,48.6,47.8,97,30.15,1.5,Calm,Calm,-,N/A,,Overcast,0,2013-05-06 12:55:00
8:15 AM,48.6,48.0,98,30.15,1.2,NNE,4.6,-,N/A,,Overcast,20,2013-05-06 13:15:00
8:35 AM,48.6,47.7,97,30.15,1.5,Calm,Calm,-,N/A,,Overcast,0,2013-05-06 13:35:00
8:55 AM,49.1,48.2,97,30.15,1.2,Calm,Calm,-,N/A,,Overcast,0,2013-05-06 13:55:00
9:15 AM,49.1,48.0,96,30.15,1.2,Calm,Calm,-,N/A,,Overcast,0,2013-05-06 14:15:00
9:35 AM,49.1,48.2,97,30.15,1.2,North,5.8,-,N/A,,Overcast,350,2013-05-06 14:35:00
9:55 AM,49.6,48.2,95,30.15,1.5,NW,5.8,-,N/A,,Overcast,320,2013-05-06 14:55:00
10:15 AM,50.0,48.4,94,30.15,1.5,NW,5.8,-,N/A,,Overcast,320,2013-05-06 15:15:00
10:35 AM,50.0,48.2,94,30.15,1.5,NNW,5.8,-,N/A,,Overcast,340,2013-05-06 15:35:00
10:55 AM,50.7,48.4,92,30.15,1.8,NNW,5.8,-,N/A,,Overcast,340,2013-05-06 15:55:00
11:15 AM,51.1,48.2,90,30.15,2.0,NW,6.9,-,N/A,,Overcast,310,2013-05-06 16:15:00
11:35 AM,51.3,48.2,89,30.16,2.0,NW,5.8,-,N/A,,Overcast,310,2013-05-06 16:35:00
11:55 AM,52.0,48.4,88,30.15,2.5,North,5.8,-,N/A,,Overcast,360,2013-05-06 16:55:00
12:15 PM,52.7,48.4,85,30.15,5.0,NW,5.8,-,N/A,,Overcast,320,2013-05-06 17:15:00
12:35 PM,53.2,48.6,84,30.14,5.0,WNW,5.8,-,N/A,,Overcast,300,2013-05-06 17:35:00
12:55 PM,53.8,48.4,82,30.14,5.0,WNW,3.5,-,N/A,,Haze,300,2013-05-06 17:55:00
1:15 PM,54.9,49.1,81,30.14,5.0,NW,6.9,-,N/A,,Haze,320,2013-05-06 18:15:00
1:35 PM,56.3,49.6,78,30.13,5.0,NW,8.1,-,N/A,,Haze,320,2013-05-06 18:35:00
1:55 PM,57.4,50.4,77,30.13,7.0,NW,6.9,-,N/A,,Overcast,320,2013-05-06 18:55:00
2:15 PM,59.2,51.3,75,30.11,7.0,NNW,5.8,-,N/A,,Scattered Clouds,340,2013-05-06 19:15:00
2:35 PM,59.9,51.6,74,30.11,7.0,North,6.9,-,N/A,,Scattered Clouds,350,2013-05-06 19:35:00
2:55 PM,60.4,50.9,71,30.11,10.0,Calm,Calm,-,N/A,,Clear,0,2013-05-06 19:55:00
3:15 PM,62.2,51.8,69,30.10,10.0,North,4.6,-,N/A,,Clear,350,2013-05-06 20:15:00
3:35 PM,63.3,52.2,67,30.09,10.0,NW,4.6,-,N/A,,Clear,320,2013-05-06 20:35:00
3:55 PM,64.6,52.3,64,30.08,10.0,NW,4.6,-,N/A,,Clear,320,2013-05-06 20:55:00
4:15 PM,64.8,52.3,64,30.06,10.0,North,4.6,-,N/A,,Clear,350,2013-05-06 21:15:00
4:35 PM,65.5,52.2,62,30.06,10.0,WNW,4.6,-,N/A,,Clear,290,2013-05-06 21:35:00
4:55 PM,66.0,52.2,61,30.06,10.0,NNW,3.5,-,N/A,,Clear,340,2013-05-06 21:55:00
5:15 PM,66.4,52.5,61,30.05,10.0,NNE,3.5,-,N/A,,Clear,30,2013-05-06 22:15:00
5:55 PM,66.7,52.3,60,30.05,10.0,Calm,Calm,-,N/A,,Clear,0,2013-05-06 22:55:00
6:15 PM,66.6,51.3,58,30.04,10.0,Calm,Calm,-,N/A,,Clear,0,2013-05-06 23:15:00
6:35 PM,66.2,50.9,58,30.04,10.0,NNW,3.5,-,N/A,,Clear,340,2013-05-06 23:35:00
6:55 PM,66.0,51.3,59,30.04,10.0,NE,3.5,-,N/A,,Clear,50,2013-05-06 23:55:00
7:15 PM,65.7,51.1,59,30.04,10.0,Calm,Calm,-,N/A,,Clear,0,2013-05-07 00:15:00
7:35 PM,64.9,51.3,61,30.04,10.0,NE,3.5,-,N/A,,Clear,40,2013-05-07 00:35:00
7:55 PM,64.4,50.9,62,30.05,10.0,Calm,Calm,-,N/A,,Clear,0,2013-05-07 00:55:00
8:15 PM,63.5,50.9,63,30.05,10.0,Calm,Calm,-,N/A,,Clear,0,2013-05-07 01:15:00
8:35 PM,61.9,51.1,68,30.05,10.0,Calm,Calm,-,N/A,,Clear,0,2013-05-07 01:35:00
8:55 PM,61.5,50.5,67,30.06,10.0,Calm,Calm,-,N/A,,Clear,0,2013-05-07 01:55:00
9:15 PM,61.0,50.4,68,30.06,10.0,Calm,Calm,-,N/A,,Clear,0,2013-05-07 02:15:00
9:55 PM,60.8,50.5,69,30.07,10.0,Calm,Calm,-,N/A,,Clear,0,2013-05-07 02:55:00
10:15 PM,60.1,50.4,70,30.07,10.0,Calm,Calm,-,N/A,,Clear,0,2013-05-07 03:15:00
10:35 PM,60.6,50.4,69,30.08,10.0,Calm,Calm,-,N/A,,Clear,0,2013-05-07 03:35:00
10:55 PM,59.7,50.4,71,30.08,10.0,Calm,Calm,-,N/A,,Clear,0,2013-05-07 03:55:00
11:15 PM,59.7,50.9,73,30.08,10.0,Calm,Calm,-,N/A,,Clear,0,2013-05-07 04:15:00
11:35 PM,56.1,50.2,80,30.08,10.0,Calm,Calm,-,N/A,,Clear,0,2013-05-07 04:35:00
11:55 PM,53.4,49.6,87,30.07,7.0,SSE,4.6,-,N/A,,Clear,150,2013-05-07 04:55:00